Home   Weather   Moss   Past weeks

Flag for Norway Past Weather in Moss, Norway — Yesterday and Last 2 Weeks

Now
59 °F

Sunny.


Feels Like: 57 °F
Forecast: 44 / 59 °F
Wind: 12 mph from South

Location: Rygge

Current Time: May 22, 2017 at 5:29:46 pm

Latest Report: May 22, 2017 at 4:50 pm


Visibility: 10 mi

Pressure: 30.04 "Hg

Humidity: 55%

Dew Point: 43 °F

Location of MossLocation

Past Weather in Moss — Graph

°F

Moss Temperature Yesterday

Maximum temperature yesterday: 59 °F (at 12:20 pm)
Minimum temperature yesterday: 52 °F (at 12:20 am)
Average temperature yesterday: 54 °F

High & Low Weather Summary for the Past Weeks

 TemperatureHumidityPressure
High70 °F (May 20, 2:50 pm)100% (May 11, 3:50 am)30.36 "Hg (May 11, 3:50 am)
Low34 °F (May 9, 4:20 am)25% (May 8, 5:20 pm)29.65 "Hg (May 11, 4:50 am)
Average49 °F80%30.02 "Hg
* Reported May 7 4:20 pm — May 22 4:20 pm, Moss. Weather by CustomWeather, © 2017

Note: Actual official high and low records may vary slightly from our data, if they occured in-between our weather recording intervals... More about our weather records

Advertising

Moss Weather History for the Previous 24 Hours

Scroll right to see more
 ConditionsComfort  
Time TempWeatherWind HumidityBarometerVisibility
4:20 pm
Mon, May 22
59 °FSunny.12 mph55%30.04 "Hg10 mi
3:50 pm59 °FSunny.15 mph51%30.04 "Hg10 mi
3:20 pm59 °FSunny.13 mph55%30.07 "Hg10 mi
2:50 pm59 °FSunny.13 mph51%30.07 "Hg10 mi
2:20 pm59 °FSunny.12 mph51%30.07 "Hg10 mi
1:50 pm61 °FPassing clouds.6 mph42%30.07 "HgN/A
1:20 pm59 °FPassing clouds.6 mph45%30.07 "HgN/A
12:50 pm59 °FSunny.3 mph45%30.07 "Hg10 mi
12:20 pm59 °FPassing clouds.6 mph45%30.09 "HgN/A
11:50 am59 °FPassing clouds.3 mph45%30.09 "HgN/A
11:20 am57 °FPassing clouds.5 mph51%30.09 "HgN/A
10:50 am57 °FPassing clouds.5 mph55%30.09 "HgN/A
10:20 am55 °FPassing clouds.5 mph55%30.09 "HgN/A
9:50 am55 °FSunny.6 mph55%30.09 "Hg10 mi
9:20 am54 °FSunny.7 mph58%30.09 "Hg10 mi
8:50 am54 °FSunny.6 mph63%30.09 "Hg10 mi
8:20 am54 °FSunny.5 mph58%30.09 "Hg10 mi
7:20 am52 °FPassing clouds.6 mph67%30.09 "HgN/A
6:50 am52 °FPartly sunny.6 mph67%30.09 "HgN/A
6:20 am50 °FCool.6 mph71%30.09 "HgN/A
5:50 am46 °FCool.2 mph82%30.09 "HgN/A
5:20 am48 °FCool.6 mph71%30.09 "HgN/A
4:50 am48 °FCool.8 mph71%30.09 "HgN/A
4:20 am50 °FCool.6 mph67%30.12 "HgN/A
3:50 am50 °FCool.7 mph67%30.09 "HgN/A
3:20 am50 °FCool.5 mph67%30.09 "HgN/A
2:50 am48 °FCool.No wind71%30.12 "HgN/A
2:20 am50 °FCool.3 mph67%30.12 "HgN/A
1:50 am52 °FCool.7 mph62%30.12 "HgN/A
1:20 am52 °FCool.6 mph62%30.12 "HgN/A
12:50 am52 °FCool.7 mph62%30.12 "HgN/A
12:20 am54 °FClear.9 mph58%30.12 "Hg10 mi
11:50 pm
Sun, May 21
54 °FPassing clouds.7 mph58%30.12 "HgN/A
11:20 pm55 °FClear.9 mph55%30.09 "Hg10 mi
10:50 pm55 °FClear.6 mph55%30.09 "Hg10 mi
10:20 pm57 °FRefreshingly cool.8 mph51%30.09 "HgN/A
9:50 pm57 °FRefreshingly cool.10 mph55%30.09 "HgN/A
9:20 pm57 °FCool.7 mph63%30.09 "HgN/A
8:50 pm57 °FCool.6 mph72%30.09 "HgN/A
8:20 pm55 °FCool.9 mph77%30.09 "HgN/A
7:50 pm55 °FSunny.15 mph82%30.09 "Hg10 mi
7:20 pm55 °FSunny.15 mph77%30.09 "Hg10 mi
6:50 pm55 °FSunny.15 mph77%30.09 "Hg10 mi
6:20 pm55 °FSunny.18 mph77%30.09 "Hg10 mi
5:50 pm55 °FPassing clouds.20 mph77%30.12 "HgN/A
5:20 pm55 °FPassing clouds.20 mph82%30.12 "HgN/A
Weather by CustomWeather, © 2017

See weather overviewHow to use our weather pages